Wind_Speed
34 34 34 34 32 32 34 37 38 39 37 42 42 47 45 46 45 43 42 42 42 42 44 45 46 44 40 37 36 36 36 34 32 32 39 46 44 46
35 35 33 32 32 31 31 31 30 32 36 42 47 48 47 46 45 44 43 43 44 44 44 43 41 39 38 36 35 35 35 34 33 31 35 42 45 46
35 32 32 31 31 30 28 30 32 36 41 45 44 46 45 44 43 42 43 43 42 41 39 37 35 36 37 36 36 35 35 37 36 34 33 36 44 47
34 33 33 33 33 31 30 32 34 37 39 42 42 42 42 42 43 42 39 37 35 33 34 34 34 35 36 35 35 35 34 35 37 37 36 36 39 45
32 33 32 32 31 31 32 34 34 34 36 39 41 41 42 39 37 35 33 30 30 32 35 36 36 36 35 35 34 31 32 34 34 35 33 37 39 42
33 33 32 30 30 32 33 33 33 34 35 37 39 39 35 31 33 33 29 29 30 31 32 31 31 30 28 29 29 29 28 30 30 28 29 33 38 40
32 31 30 30 31 32 32 32 32 33 36 37 34 32 30 30 29 28 30 31 24 26 26 25 31 29 27 28 28 26 25 24 27 28 28 29 32 38
31 30 30 30 31 31 30 30 32 35 35 33 32 32 31 31 29 29 30 27 22 22 26 20 25 23 23 25 25 20 24 26 26 29 28 28 30 34
31 31 30 30 30 28 28 29 31 32 33 33 31 31 31 30 29 29 24 24 22 18 23 19 18 18 20 23 24 24 16 23 24 18 19 21 27 30
31 30 30 29 29 27 26 28 27 29 29 29 29 28 29 28 28 26 22 19 15 10 19 22 18 17 16 19 22 22 22 22 23 18 18 17 25 24
29 30 28 29 28 25 25 25 24 25 26 27 26 27 28 27 27 24 20 19 14 12 15 24 21 19 14 14 15 20 29 24 25 22 20 21 21 17
28 26 27 28 26 24 24 23 23 22 23 23 24 24 25 25 24 22 20 18 17 15 17 24 24 19 12 13 12 15 20 26 28 27 27 24 17 15
27 26 27 27 25 22 23 21 20 20 21 23 24 23 22 23 22 20 19 19 15 14 16 21 21 18 18 11 11 12 8 10 18 25 21 16 15 15
25 26 26 26 25 22 22 19 19 19 20 21 22 22 21 21 20 19 18 17 16 14 16 20 17 17 17 12 9 6 7 6 6 8 12 11 13 13
27 27 27 26 27 22 21 19 17 17 18 20 21 22 21 20 19 18 16 16 14 12 15 13 16 17 15 10 10 10 3 4 3 7 3 6 13 8
30 28 28 25 26 23 21 20 18 17 17 18 20 22 22 20 19 19 16 14 15 14 14 13 15 18 13 10 13 12 6 5 2 11 5 6 11 7
34 30 28 25 25 23 20 20 18 17 17 17 19 20 22 22 19 18 17 15 15 16 16 15 15 14 17 10 8 13 12 7 5 10 5 10 9 15
31 29 25 24 24 22 21 19 19 17 18 18 18 19 20 22 19 17 17 16 15 14 16 16 14 11 10 9 8 6 12 12 7 7 5 14 16 16
32 26 24 24 23 22 20 19 18 17 18 17 17 17 18 20 20 18 16 15 14 13 12 12 12 10 7 6 7 3 3 5 9 12 10 12 7 10
28 24 23 22 22 21 20 19 18 17 18 17 16 16 17 18 18 17 16 14 13 12 11 11 9 10 9 6 4 2 4 4 5 8 10 10 13 14
28 23 23 23 22 21 19 19 18 17 18 16 15 15 15 17 17 16 15 14 13 11 10 8 6 6 9 9 4 4 5 3 6 4 4 8 10 11
29 27 20 24 24 22 20 19 18 18 18 16 14 14 13 15 15 15 13 13 12 11 9 6 2 3 5 7 7 5 5 5 5 4 0 4 6 8
25 25 24 21 22 21 20 18 18 18 18 16 14 14 13 13 14 13 12 11 11 10 9 6 3 3 3 5 8 7 5 7 4 4 9 10 7 4
Wind_Direction
298 298 298 299 300 298 292 292 291 293 288 282 281 298 300 300 299 295 293 291 290 288 286 286 286 286 282 276 274 273 270 266 260 250 245 243 244 237
306 306 305 302 306 304 299 298 294 291 283 288 292 297 297 297 296 294 292 291 291 289 287 286 284 282 281 279 276 270 267 264 261 254 246 243 243 241
305 303 303 304 305 303 301 295 287 287 287 290 294 297 297 297 294 293 293 292 290 288 286 283 282 279 278 277 274 270 266 261 258 254 248 245 244 244
307 309 308 306 306 304 300 299 298 296 297 295 298 298 297 297 298 298 296 294 292 290 287 284 281 277 275 276 276 272 265 259 258 256 251 245 244 244
310 306 307 304 305 304 302 301 302 299 296 299 300 299 300 302 300 300 298 296 292 291 288 287 284 280 277 275 275 273 264 252 252 254 250 245 244 244
311 309 305 303 304 303 305 305 302 300 301 300 300 302 303 304 304 302 300 298 297 292 289 291 285 280 278 274 271 271 263 249 250 248 251 248 245 244
309 306 304 304 306 307 308 305 304 305 303 303 304 305 307 309 307 301 304 306 309 298 297 295 287 284 276 271 272 272 251 245 247 247 247 247 250 247
305 304 304 305 307 309 307 307 308 307 306 309 312 313 313 316 313 311 313 309 310 304 305 303 294 292 277 271 270 256 260 256 249 244 246 249 253 249
303 304 305 306 308 309 307 309 310 308 311 312 313 315 315 317 315 316 313 312 319 318 309 310 313 300 283 274 269 246 230 231 233 229 244 263 258 247
305 304 305 307 310 308 307 310 309 310 310 311 312 314 316 317 315 315 314 315 323 332 321 316 320 311 294 276 272 247 249 235 233 245 264 274 269 249
307 305 306 311 310 306 309 310 312 312 314 315 316 318 319 319 318 315 315 313 313 316 323 320 321 313 295 278 276 261 250 256 240 254 262 282 290 244
305 302 307 311 307 305 309 311 316 317 321 322 321 317 320 318 317 311 310 312 311 319 333 330 331 315 292 269 278 277 270 256 253 258 265 276 264 243
301 298 306 311 305 303 307 309 315 323 328 327 325 324 321 322 321 310 304 308 315 320 338 331 341 315 290 273 278 267 279 270 251 252 258 250 228 228
295 296 302 308 303 298 301 307 314 322 327 329 331 328 323 323 318 315 300 298 303 305 321 331 335 323 306 275 288 348 102 223 266 238 206 240 212 211
292 294 300 304 300 294 298 299 304 312 322 333 336 337 330 323 325 323 306 292 291 301 329 317 327 335 320 277 259 284 213 203 152 205 287 239 189 167
294 292 297 298 295 287 288 288 294 304 317 329 335 342 340 331 326 327 322 291 277 270 286 299 342 346 334 298 256 257 270 219 292 203 51 175 180 168
283 286 291 292 289 281 280 279 284 296 309 322 331 341 344 340 329 327 325 319 290 268 262 280 300 320 340 340 271 249 266 270 254 249 86 96 146 151
277 282 287 286 285 276 270 275 281 288 298 310 321 335 341 341 336 329 331 323 319 296 277 275 279 295 331 341 347 268 254 252 221 232 228 126 131 161
278 280 279 280 284 277 269 272 278 282 290 300 312 325 336 337 337 336 332 333 324 320 302 280 268 266 284 318 332 333 215 208 204 212 227 213 199 169
279 275 273 275 279 277 271 269 274 279 284 292 304 318 329 332 336 334 333 335 334 325 321 303 275 256 253 255 334 348 127 115 175 204 217 222 227 227
275 268 273 268 272 274 273 268 270 273 277 284 294 309 318 327 332 336 334 334 340 338 334 325 289 254 233 224 255 207 196 119 146 141 189 214 224 229
270 259 268 274 265 266 268 268 266 265 268 275 284 294 309 320 324 336 335 333 341 344 337 341 291 231 220 222 214 209 204 210 229 234 289 175 190 209
274 264 257 266 277 267 266 265 265 263 263 266 272 282 296 309 321 331 333 335 341 344 345 345 341 218 196 222 214 209 203 201 266 247 225 224 207 214
Height
3052 3047 3042 3037 3034 3030 3026 3022 3017 3013 3011 3009 3006 3003 2998 2994 2990 2986 2982 2978 2974 2971 2967 2963 2959 2956 2955 2954 2953 2953 2952 2953 2955 2956 2957 2958 2962 2967
3041 3037 3033 3029 3024 3020 3017 3014 3012 3008 3003 3000 2996 2992 2987 2983 2979 2975 2971 2967 2963 2959 2955 2952 2948 2945 2943 2943 2943 2942 2942 2943 2944 2946 2948 2949 2951 2955
3033 3028 3025 3021 3017 3013 3009 3007 3004 3000 2996 2992 2987 2983 2977 2972 2969 2965 2960 2956 2952 2948 2944 2941 2939 2936 2934 2933 2932 2932 2932 2932 2933 2935 2938 2940 2941 2943
3027 3021 3016 3012 3009 3007 3003 2999 2995 2992 2986 2980 2976 2974 2969 2963 2957 2953 2949 2945 2940 2937 2933 2930 2928 2926 2924 2923 2922 2921 2922 2922 2923 2925 2927 2930 2931 2933
3017 3013 3010 3007 3003 2999 2995 2991 2987 2982 2977 2971 2967 2964 2959 2954 2948 2943 2939 2935 2932 2927 2923 2920 2917 2916 2914 2913 2911 2910 2910 2911 2913 2915 2917 2919 2922 2923
3010 3006 3003 3000 2996 2992 2988 2984 2978 2974 2969 2965 2960 2955 2950 2946 2939 2933 2931 2927 2924 2919 2914 2910 2906 2904 2904 2902 2902 2901 2901 2902 2904 2906 2908 2910 2912 2914
3005 3000 2997 2993 2989 2985 2980 2975 2970 2966 2962 2957 2953 2947 2942 2937 2932 2927 2922 2917 2916 2908 2906 2903 2897 2897 2896 2894 2894 2894 2894 2894 2897 2899 2899 2901 2902 2904
2999 2994 2990 2987 2982 2978 2973 2968 2964 2959 2954 2949 2944 2939 2934 2929 2924 2919 2914 2910 2908 2904 2898 2898 2890 2890 2888 2887 2888 2888 2888 2889 2890 2891 2892 2893 2894 2895
2992 2988 2983 2980 2976 2971 2966 2962 2958 2952 2947 2942 2938 2932 2927 2923 2918 2913 2909 2905 2902 2898 2892 2890 2887 2885 2883 2882 2881 2882 2882 2882 2884 2885 2887 2887 2887 2888
2984 2980 2976 2973 2968 2964 2960 2957 2953 2947 2943 2937 2932 2928 2922 2917 2912 2908 2904 2902 2898 2895 2890 2885 2883 2880 2878 2876 2875 2876 2877 2877 2878 2880 2881 2881 2880 2882
2977 2973 2970 2966 2962 2958 2955 2952 2948 2943 2937 2932 2927 2922 2917 2912 2907 2903 2900 2897 2895 2894 2889 2883 2880 2876 2874 2873 2871 2870 2872 2873 2874 2875 2876 2876 2876 2877
2970 2966 2963 2960 2955 2952 2950 2946 2942 2938 2933 2928 2923 2918 2913 2908 2903 2899 2896 2894 2891 2888 2886 2880 2876 2872 2870 2870 2869 2867 2865 2866 2868 2870 2870 2871 2872 2873
2963 2960 2957 2953 2950 2947 2944 2941 2938 2933 2928 2923 2919 2914 2909 2904 2900 2896 2893 2890 2888 2885 2883 2879 2874 2870 2867 2867 2867 2866 2863 2861 2862 2863 2865 2867 2868 2869
2956 2953 2951 2947 2944 2942 2939 2936 2932 2929 2925 2921 2915 2910 2905 2901 2897 2893 2890 2887 2885 2883 2881 2878 2873 2868 2865 2864 2864 2864 2861 2860 2860 2860 2862 2864 2864 2866
2949 2946 2944 2941 2938 2936 2933 2931 2928 2925 2922 2917 2912 2907 2902 2898 2894 2890 2887 2884 2883 2881 2879 2876 2873 2868 2864 2862 2862 2863 2862 2860 2859 2860 2861 2860 2862 2865
2941 2938 2936 2935 2932 2929 2928 2926 2923 2921 2917 2914 2909 2904 2899 2894 2890 2887 2884 2881 2879 2878 2877 2875 2872 2868 2863 2861 2861 2861 2862 2861 2860 2859 2860 2860 2862 2865
2932 2930 2929 2927 2925 2922 2921 2920 2918 2916 2913 2910 2906 2901 2896 2891 2888 2884 2880 2877 2875 2874 2873 2872 2871 2868 2865 2861 2859 2860 2861 2862 2861 2860 2862 2863 2864 2867
2922 2921 2921 2919 2917 2915 2915 2914 2912 2910 2908 2906 2902 2898 2894 2889 2885 2881 2878 2874 2871 2869 2868 2868 2868 2867 2865 2863 2860 2858 2859 2861 2863 2862 2863 2864 2866 2868
2912 2913 2912 2911 2909 2908 2908 2907 2906 2905 2903 2901 2898 2895 2891 2887 2883 2879 2876 2872 2869 2866 2864 2863 2863 2864 2864 2863 2861 2859 2859 2859 2861 2863 2863 2866 2867 2870
2904 2904 2903 2903 2902 2901 2901 2900 2900 2899 2898 2896 2894 2891 2888 2885 2881 2877 2873 2870 2867 2864 2862 2860 2860 2860 2861 2862 2861 2861 2860 2860 2861 2862 2864 2865 2867 2870
2895 2895 2895 2895 2894 2894 2894 2894 2893 2893 2892 2891 2889 2888 2885 2882 2879 2875 2871 2868 2865 2863 2860 2858 2857 2857 2858 2860 2861 2861 2862 2862 2862 2863 2864 2865 2867 2869
2886 2886 2887 2887 2887 2887 2887 2887 2887 2887 2887 2886 2885 2884 2882 2879 2877 2873 2869 2867 2864 2861 2859 2858 2856 2856 2857 2859 2860 2861 2862 2863 2863 2864 2865 2865 2867 2868
2877 2878 2878 2880 2880 2880 2880 2880 2880 2880 2880 2880 2879 2879 2878 2876 2874 2871 2868 2865 2863 2861 2859 2857 2856 2856 2858 2858 2859 2861 2861 2863 2863 2863 2864 2866 2867 2868